Weather in Trubino

Russia / Kaluga Oblast     54°58′55″N   36°41′53″E
temp.,
°C
wind,
m/s
gust,
m/s
humid.,
%
clouds,
%
prec.,
mm/h
press.,
hPa
HPBL,
m
20 april, tue
tue2000:00+3ene51196100 0.4 1022726
03:00+2ene51297100 2.1 1021615
06:00+3ene51294100 0.2 1020649
09:00+3e51188100 0.3 1019723
12:00+3ene41096100 0.1 1019678
15:00+2ene41097100 0.3 1018571
18:00+2ene41197100 0.1 1016599
21:00+2ene41097100 0.9 1013659
21 april, wed
wed2100:00+1ne41198100 3.0 1009462
03:00+1nne41298100 8.2 1004737
06:000n4999100 3.3 1001334
09:00+1wnw4998100 8.9 1000319
12:00+2wsw51098100 0.5 1003656
15:00+3sw51098100 0.6 1007838
18:00+5sw499293 0.1 1009736
21:00+3s3996100 0.1 1011310
22 april, thu
thu2200:00+4ssw3996100 0.1 1012291
03:00+3ssw399657 0.4 1013289
06:00+1s2897100 0.0 1014194
09:00+7ssw488551 0.0 1015430
12:00+10ssw4773100 0.0 10151124
15:00+12s377486 0.2 10151497
18:00+11s378351 0.5 1015361
21:00+7sse28935 0.5 1016135
23 april, fri
fri2300:00+6s279521 0.0 1016132
03:00+5s279465 0.0 1017121
06:00+5s2109533 0.0 1017211
09:00+11ssw498037 0.0 1017459
12:00+15s58645 0.0 10161068
15:00+16s510645 1.3 10151637
18:00+14s5116710 0.7 1014868
21:00+11s516765 0.7 1013731
24 april, sat
sat2400:00+10s51378100 0.0 1012738
03:00+7wsw3795100 1.4 1012507
06:00+4w3696100 5.3 1012573
09:00+4ssw2593100 8.1 1013548
12:00+7ssw3574100 0.5 10121099
15:00+7sw5775100 1.5 10111074
18:00+6wsw587161 0.9 10111087
21:00+2wsw4108868 0.9 1012606